INTELSAT 20 (IS-20)

Last updated on Tue Jul 01 2025 00:02:45 GMT+0000 (Coordinated Universal Time)

1 38740U 12043A 25181.43861090 -.00000025 00000+0 00000+0 0 9996 2 38740 0.0081 65.3480 0000917 121.1223 318.6710 1.00271563 47224
UTC large
Height (km)
Speed (km/s)
/
Latitude / Longitude
Inclination (degrees)
Orbital Period (minutes)
Azimuth
Elevation
Range (km)
Doppler Factor

Next 0 passes for location: London (51.5072 / 0.1276)

Sorry there are no passes over London.